When you browse on this site, cookies collect data to enhance your experience and personalize the content and advertising you see.
Visit our Privacy Policy to learn more. By continuing to use the site, you agree to this use of cookies and data.
  • Em Portugal
  • Lista de países
  • Para 7 dias
  • Temperatura da água
  • Mapa do tempo
  • Widgets de tempo
  • user-avatar
    Iniciar Sessão

    Previsão horária em Montilla

    Hoje, 21 Agosto, Quarta-feira

    Tempo Temperatura Precipitação Vento Pressão Humidade
    00:00 +22°C° 0 mm 3 m/s 735 mmHg 53%
    01:00 +21°C° 0 mm 2 m/s 735 mmHg 61%
    02:00 +21°C° 0 mm 2 m/s 734 mmHg 69%
    03:00 +21°C° 0 mm 1 m/s 734 mmHg 77%
    04:00 +21°C° 0 mm 1 m/s 735 mmHg 77%
    05:00 +21°C° 0 mm 1 m/s 735 mmHg 78%
    06:00 +21°C° 0 mm 1 m/s 735 mmHg 78%
    07:00 +24°C° 0 mm 1 m/s 735 mmHg 69%
    08:00 +26°C° 0 mm 2 m/s 735 mmHg 60%
    09:00 +29°C° 0 mm 2 m/s 736 mmHg 51%
    10:00 +31°C° 0 mm 2 m/s 735 mmHg 46%
    11:00 +33°C° 0 mm 3 m/s 735 mmHg 41%
    12:00 +35°C° 0 mm 4 m/s 735 mmHg 37%
    13:00 +35°C° 0 mm 4 m/s 735 mmHg 36%
    14:00 +36°C° 0 mm 5 m/s 734 mmHg 35%
    15:00 +36°C° 0 mm 5 m/s 734 mmHg 34%
    16:00 +35°C° 0 mm 5 m/s 734 mmHg 36%
    17:00 +34°C° 0 mm 5 m/s 734 mmHg 38%
    18:00 +33°C° 0 mm 5 m/s 734 mmHg 40%
    19:00 +30°C° 0 mm 4 m/s 734 mmHg 50%
    20:00 +28°C° 0 mm 3 m/s 734 mmHg 60%
    21:00 +25°C° 0 mm 3 m/s 735 mmHg 70%
    22:00 +24°C° 0 mm 3 m/s 735 mmHg 75%
    23:00 +24°C° 0 mm 3 m/s 735 mmHg 79%

    Amanhã, 22 Agosto, Quinta-feira

    Tempo Temperatura Precipitação Vento Pressão Humidade
    00:00 +22°C° 0 mm 3 m/s 735 mmHg 84%
    01:00 +23°C° 0 mm 2 m/s 735 mmHg 86%
    02:00 +21°C° 0 mm 2 m/s 735 mmHg 88%
    03:00 +22°C° 0 mm 1 m/s 735 mmHg 90%
    04:00 +22°C° 0 mm 1 m/s 735 mmHg 90%
    05:00 +22°C° 0 mm 1 m/s 735 mmHg 90%
    06:00 +22°C° 0 mm 1 m/s 735 mmHg 91%
    07:00 +24°C° 0 mm 1 m/s 735 mmHg 79%
    08:00 +26°C° 0 mm 2 m/s 736 mmHg 67%
    09:00 +29°C° 0 mm 2 m/s 736 mmHg 55%
    10:00 +31°C° 0 mm 2 m/s 736 mmHg 48%
    11:00 +34°C° 0 mm 2 m/s 735 mmHg 40%
    12:00 +36°C° 0 mm 2 m/s 735 mmHg 32%
    13:00 +37°C° 0 mm 3 m/s 735 mmHg 30%
    14:00 +38°C° 0 mm 3 m/s 734 mmHg 28%
    15:00 +39°C° 0 mm 3 m/s 734 mmHg 25%
    16:00 +37°C° 0 mm 4 m/s 734 mmHg 31%
    17:00 +35°C° 0 mm 5 m/s 734 mmHg 36%
    18:00 +33°C° 0 mm 7 m/s 733 mmHg 41%
    19:00 +30°C° 0 mm 5 m/s 734 mmHg 48%
    20:00 +27°C° 0 mm 4 m/s 734 mmHg 54%
    21:00 +25°C° 0 mm 3 m/s 735 mmHg 61%
    22:00 +24°C° 0 mm 3 m/s 735 mmHg 64%
    23:00 +24°C° 0 mm 2 m/s 735 mmHg 68%

    Depois de amanhã, 23 Agosto, Sexta-feira

    Tempo Temperatura Precipitação Vento Pressão Humidade
    00:00 +23°C° 0 mm 2 m/s 735 mmHg 71%
    01:00 +21°C° 0 mm 2 m/s 735 mmHg 74%
    02:00 +22°C° 0 mm 1 m/s 735 mmHg 76%
    03:00 +21°C° 0 mm 1 m/s 735 mmHg 79%
    04:00 +21°C° 0 mm 1 m/s 735 mmHg 80%
    05:00 +21°C° 0 mm 1 m/s 735 mmHg 80%
    06:00 +21°C° 0 mm 1 m/s 735 mmHg 80%
    07:00 +23°C° 0 mm 1 m/s 735 mmHg 68%
    08:00 +26°C° 0 mm 1 m/s 735 mmHg 56%
    09:00 +29°C° 0 mm 1 m/s 735 mmHg 44%
    10:00 +31°C° 0 mm 1 m/s 735 mmHg 37%
    11:00 +33°C° 0 mm 1 m/s 735 mmHg 29%
    12:00 +36°C° 0 mm 1 m/s 735 mmHg 22%
    13:00 +37°C° 0 mm 3 m/s 735 mmHg 21%
    14:00 +38°C° 0 mm 4 m/s 734 mmHg 19%
    15:00 +40°C° 0 mm 5 m/s 734 mmHg 17%
    16:00 +37°C° 0 mm 5 m/s 734 mmHg 20%
    17:00 +35°C° 0 mm 6 m/s 734 mmHg 23%
    18:00 +34°C° 0 mm 6 m/s 734 mmHg 25%
    19:00 +30°C° 0 mm 5 m/s 734 mmHg 32%
    20:00 +27°C° 0 mm 4 m/s 734 mmHg 39%
    21:00 +25°C° 0 mm 4 m/s 735 mmHg 45%
    22:00 +24°C° 0 mm 3 m/s 735 mmHg 48%
    23:00 +22°C° 0 mm 3 m/s 735 mmHg 50%

    24 Agosto, Sábado

    Tempo Temperatura Precipitação Vento Pressão Humidade
    00:00 +21°C° 0 mm 2 m/s 735 mmHg 53%
    01:00 +21°C° 0 mm 2 m/s 735 mmHg 54%
    02:00 +21°C° 0 mm 2 m/s 735 mmHg 56%
    03:00 +21°C° 0 mm 1 m/s 734 mmHg 58%
    04:00 +21°C° 0 mm 1 m/s 734 mmHg 58%
    05:00 +21°C° 0 mm 1 m/s 734 mmHg 59%
    06:00 +21°C° 0 mm 1 m/s 734 mmHg 59%
    07:00 +24°C° 0 mm 2 m/s 735 mmHg 49%
    08:00 +27°C° 0 mm 2 m/s 735 mmHg 40%
    09:00 +30°C° 0 mm 2 m/s 735 mmHg 30%
    10:00 +34°C° 0 mm 3 m/s 735 mmHg 26%
    11:00 +36°C° 0 mm 3 m/s 735 mmHg 21%
    12:00 +39°C° 0 mm 3 m/s 735 mmHg 17%
    13:00 +40°C° 0 mm 4 m/s 734 mmHg 16%
    14:00 +41°C° 0 mm 5 m/s 734 mmHg 15%
    15:00 +42°C° 0 mm 6 m/s 734 mmHg 14%
    16:00 +40°C° 0 mm 6 m/s 733 mmHg 16%
    17:00 +38°C° 0 mm 6 m/s 733 mmHg 18%
    18:00 +36°C° 0 mm 6 m/s 733 mmHg 20%
    19:00 +33°C° 0 mm 5 m/s 733 mmHg 26%
    20:00 +29°C° 0 mm 4 m/s 733 mmHg 31%
    21:00 +26°C° 0 mm 3 m/s 734 mmHg 36%
    22:00 +25°C° 0 mm 3 m/s 734 mmHg 39%
    23:00 +24°C° 0 mm 3 m/s 734 mmHg 42%

    25 Agosto, Domingo

    Tempo Temperatura Precipitação Vento Pressão Humidade
    00:00 +24°C° 0 mm 3 m/s 734 mmHg 45%
    01:00 +22°C° 0 mm 3 m/s 734 mmHg 47%
    02:00 +21°C° 0 mm 2 m/s 733 mmHg 48%
    03:00 +21°C° 0 mm 2 m/s 733 mmHg 50%
    04:00 +20°C° 0 mm 2 m/s 733 mmHg 50%
    05:00 +20°C° 0 mm 2 m/s 734 mmHg 50%
    06:00 +20°C° 0 mm 2 m/s 734 mmHg 49%
    07:00 +24°C° 0 mm 2 m/s 734 mmHg 41%
    08:00 +28°C° 0 mm 2 m/s 734 mmHg 32%
    09:00 +31°C° 0 mm 2 m/s 735 mmHg 23%
    10:00 +35°C° 0 mm 2 m/s 734 mmHg 20%
    11:00 +37°C° 0 mm 3 m/s 734 mmHg 17%
    12:00 +39°C° 0 mm 3 m/s 734 mmHg 14%
    13:00 +41°C° 0 mm 4 m/s 734 mmHg 15%
    14:00 +41°C° 0 mm 4 m/s 733 mmHg 15%
    15:00 +42°C° 0 mm 5 m/s 733 mmHg 15%
    16:00 +40°C° 0 mm 5 m/s 733 mmHg 17%
    17:00 +39°C° 0 mm 5 m/s 733 mmHg 20%
    18:00 +36°C° 0 mm 5 m/s 733 mmHg 22%
    19:00 +33°C° 0 mm 5 m/s 733 mmHg 28%
    20:00 +30°C° 0 mm 4 m/s 734 mmHg 34%
    21:00 +27°C° 0 mm 3 m/s 734 mmHg 40%
    22:00 +26°C° 0 mm 3 m/s 734 mmHg 41%
    23:00 +26°C° 0 mm 3 m/s 735 mmHg 42%

    26 Agosto, Segunda-feira

    Tempo Temperatura Precipitação Vento Pressão Humidade
    00:00 +25°C° 0 mm 3 m/s 735 mmHg 43%
    01:00 +25°C° 0 mm 3 m/s 735 mmHg 43%
    02:00 +25°C° 0 mm 2 m/s 735 mmHg 43%
    03:00 +25°C° 0 mm 2 m/s 734 mmHg 42%
    04:00 +24°C° 0 mm 2 m/s 734 mmHg 42%
    05:00 +24°C° 0 mm 2 m/s 735 mmHg 42%
    06:00 +24°C° 0 mm 1 m/s 735 mmHg 42%
    07:00 +26°C° 0 mm 1 m/s 735 mmHg 38%
    08:00 +28°C° 0 mm 1 m/s 735 mmHg 33%
    09:00 +30°C° 0 mm 1 m/s 736 mmHg 29%
    10:00 +31°C° 0 mm 2 m/s 736 mmHg 27%
    11:00 +32°C° 0 mm 2 m/s 736 mmHg 25%
    12:00 +35°C° 0 mm 3 m/s 736 mmHg 23%
    13:00 +35°C° 0 mm 3 m/s 736 mmHg 22%
    14:00 +36°C° 0 mm 2 m/s 735 mmHg 21%
    15:00 +36°C° 0 mm 2 m/s 735 mmHg 20%
    16:00 +35°C° 0 mm 3 m/s 735 mmHg 21%
    17:00 +34°C° 0 mm 3 m/s 735 mmHg 23%
    18:00 +34°C° 0 mm 4 m/s 735 mmHg 25%
    19:00 +32°C° 0 mm 4 m/s 736 mmHg 28%
    20:00 +30°C° 0 mm 4 m/s 736 mmHg 32%
    21:00 +29°C° 0 mm 4 m/s 737 mmHg 36%
    22:00 +29°C° 0.1 mm 5 m/s 737 mmHg 38%
    23:00 +29°C° 0.1 mm 5 m/s 737 mmHg 40%
    Mostrar mais